#datetime,building,power
2024-03-20T00:00:00,prt,18.82
2024-03-20T00:01:00,prt,16.54
2024-03-20T00:02:00,prt,16.21
2024-03-20T00:03:00,prt,15.81
2024-03-20T00:04:00,prt,16.64
2024-03-20T00:05:00,prt,17.43
2024-03-20T00:06:00,prt,18.49
2024-03-20T00:07:00,prt,18.55
2024-03-20T00:08:00,prt,19.03
2024-03-20T00:09:00,prt,19.87
2024-03-20T00:10:00,prt,17.41
2024-03-20T00:11:00,prt,18.08
2024-03-20T00:12:00,prt,18.15
2024-03-20T00:13:00,prt,18.79
2024-03-20T00:14:00,prt,18.85
2024-03-20T00:15:00,prt,19.02
2024-03-20T00:16:00,prt,18.28
2024-03-20T00:17:00,prt,18.22
2024-03-20T00:18:00,prt,18.73
2024-03-20T00:19:00,prt,20.96
2024-03-20T00:20:00,prt,24.71
2024-03-20T00:21:00,prt,24.64
2024-03-20T00:22:00,prt,27.85
2024-03-20T00:23:00,prt,27.07
2024-03-20T00:24:00,prt,21.25
2024-03-20T00:25:00,prt,21.93
2024-03-20T00:26:00,prt,22.28
2024-03-20T00:27:00,prt,22.80
2024-03-20T00:28:00,prt,22.29
2024-03-20T00:29:00,prt,22.45
2024-03-20T00:30:00,prt,18.55
2024-03-20T00:31:00,prt,18.59
2024-03-20T00:32:00,prt,18.12
2024-03-20T00:33:00,prt,17.88
2024-03-20T00:34:00,prt,19.13
2024-03-20T00:35:00,prt,19.21
2024-03-20T00:36:00,prt,19.27
2024-03-20T00:37:00,prt,18.93
2024-03-20T00:38:00,prt,17.31
2024-03-20T00:39:00,prt,17.08
2024-03-20T00:40:00,prt,17.05
2024-03-20T00:41:00,prt,18.57
2024-03-20T00:42:00,prt,18.71
2024-03-20T00:43:00,prt,19.14
2024-03-20T00:44:00,prt,17.56
2024-03-20T00:45:00,prt,16.68
2024-03-20T00:46:00,prt,16.89
2024-03-20T00:47:00,prt,20.18
2024-03-20T00:48:00,prt,23.13
2024-03-20T00:49:00,prt,23.52
2024-03-20T00:50:00,prt,22.68
2024-03-20T00:51:00,prt,21.06
2024-03-20T00:52:00,prt,19.39
2024-03-20T00:53:00,prt,18.86
2024-03-20T00:54:00,prt,18.87
2024-03-20T00:55:00,prt,18.81
2024-03-20T00:56:00,prt,21.17
2024-03-20T00:57:00,prt,21.62
2024-03-20T00:58:00,prt,23.54
2024-03-20T00:59:00,prt,24.44
2024-03-20T01:00:00,prt,24.37
2024-03-20T01:01:00,prt,24.32
2024-03-20T01:02:00,prt,24.76
2024-03-20T01:03:00,prt,20.91
2024-03-20T01:04:00,prt,20.75
2024-03-20T01:05:00,prt,19.78
2024-03-20T01:06:00,prt,19.64
2024-03-20T01:07:00,prt,19.50
2024-03-20T01:08:00,prt,19.72
2024-03-20T01:09:00,prt,18.91
2024-03-20T01:10:00,prt,18.95
2024-03-20T01:11:00,prt,18.40
2024-03-20T01:12:00,prt,20.22
2024-03-20T01:13:00,prt,19.96
2024-03-20T01:14:00,prt,23.25
2024-03-20T01:15:00,prt,24.29
2024-03-20T01:16:00,prt,23.93
2024-03-20T01:17:00,prt,23.44
2024-03-20T01:18:00,prt,20.08
2024-03-20T01:19:00,prt,19.53
2024-03-20T01:20:00,prt,19.70
2024-03-20T01:21:00,prt,19.79
2024-03-20T01:22:00,prt,19.57
2024-03-20T01:23:00,prt,19.49
2024-03-20T01:24:00,prt,20.30
2024-03-20T01:25:00,prt,20.92
2024-03-20T01:26:00,prt,21.08
2024-03-20T01:27:00,prt,21.13
2024-03-20T01:28:00,prt,21.66
2024-03-20T01:29:00,prt,21.36
2024-03-20T01:30:00,prt,21.57
2024-03-20T01:31:00,prt,21.81
2024-03-20T01:32:00,prt,26.82
2024-03-20T01:33:00,prt,25.44
2024-03-20T01:34:00,prt,25.10
2024-03-20T01:35:00,prt,28.01
2024-03-20T01:36:00,prt,25.39
2024-03-20T01:37:00,prt,24.32
2024-03-20T01:38:00,prt,23.44
2024-03-20T01:39:00,prt,21.45
2024-03-20T01:40:00,prt,22.15
2024-03-20T01:41:00,prt,26.28
2024-03-20T01:42:00,prt,26.48
2024-03-20T01:43:00,prt,25.54
2024-03-20T01:44:00,prt,24.74
2024-03-20T01:45:00,prt,21.39
2024-03-20T01:46:00,prt,20.68
2024-03-20T01:47:00,prt,16.42
2024-03-20T01:48:00,prt,17.19
2024-03-20T01:49:00,prt,17.50
2024-03-20T01:50:00,prt,17.93
2024-03-20T01:51:00,prt,17.74
2024-03-20T01:52:00,prt,16.71
2024-03-20T01:53:00,prt,18.52
2024-03-20T01:54:00,prt,18.30
2024-03-20T01:55:00,prt,17.99
2024-03-20T01:56:00,prt,17.36
2024-03-20T01:57:00,prt,17.78
2024-03-20T01:58:00,prt,17.84
2024-03-20T01:59:00,prt,18.24
2024-03-20T02:00:00,prt,17.42
2024-03-20T02:01:00,prt,17.36
2024-03-20T02:02:00,prt,16.94
2024-03-20T02:03:00,prt,16.88
2024-03-20T02:04:00,prt,19.76
2024-03-20T02:05:00,prt,20.64
2024-03-20T02:06:00,prt,20.98
2024-03-20T02:07:00,prt,20.90
2024-03-20T02:08:00,prt,23.95
2024-03-20T02:09:00,prt,22.96
2024-03-20T02:10:00,prt,22.16
2024-03-20T02:11:00,prt,24.05
2024-03-20T02:12:00,prt,19.22
2024-03-20T02:13:00,prt,18.53
2024-03-20T02:14:00,prt,18.04
2024-03-20T02:15:00,prt,18.94
2024-03-20T02:16:00,prt,19.52
2024-03-20T02:17:00,prt,18.49
2024-03-20T02:18:00,prt,19.77
2024-03-20T02:19:00,prt,21.46
2024-03-20T02:20:00,prt,21.46
2024-03-20T02:21:00,prt,22.45
2024-03-20T02:22:00,prt,21.51
2024-03-20T02:23:00,prt,19.27
2024-03-20T02:24:00,prt,19.66
2024-03-20T02:25:00,prt,18.75
2024-03-20T02:26:00,prt,17.49
2024-03-20T02:27:00,prt,17.48
2024-03-20T02:28:00,prt,17.69
2024-03-20T02:29:00,prt,20.07
2024-03-20T02:30:00,prt,24.68
2024-03-20T02:31:00,prt,24.13
2024-03-20T02:32:00,prt,22.77
2024-03-20T02:33:00,prt,21.83
2024-03-20T02:34:00,prt,20.78
2024-03-20T02:35:00,prt,26.71
2024-03-20T02:36:00,prt,26.15
2024-03-20T02:37:00,prt,22.56
2024-03-20T02:38:00,prt,24.44
2024-03-20T02:39:00,prt,22.56
2024-03-20T02:40:00,prt,24.17
2024-03-20T02:41:00,prt,21.73
2024-03-20T02:42:00,prt,21.70
2024-03-20T02:43:00,prt,22.32
2024-03-20T02:44:00,prt,23.43
2024-03-20T02:45:00,prt,19.88
2024-03-20T02:46:00,prt,16.25
2024-03-20T02:47:00,prt,18.18
2024-03-20T02:48:00,prt,17.88
2024-03-20T02:49:00,prt,18.25
2024-03-20T02:50:00,prt,18.25
2024-03-20T02:51:00,prt,17.11
2024-03-20T02:52:00,prt,18.93
2024-03-20T02:53:00,prt,19.49
2024-03-20T02:54:00,prt,20.14
2024-03-20T02:55:00,prt,20.84
2024-03-20T02:56:00,prt,20.96
2024-03-20T02:57:00,prt,20.94
2024-03-20T02:58:00,prt,19.03
2024-03-20T02:59:00,prt,18.61
2024-03-20T03:00:00,prt,18.06
2024-03-20T03:01:00,prt,21.82
2024-03-20T03:02:00,prt,19.35
2024-03-20T03:03:00,prt,20.61
2024-03-20T03:04:00,prt,19.63
2024-03-20T03:05:00,prt,16.48
2024-03-20T03:06:00,prt,18.24
2024-03-20T03:07:00,prt,18.32
2024-03-20T03:08:00,prt,20.72
2024-03-20T03:09:00,prt,18.93
2024-03-20T03:10:00,prt,18.27
2024-03-20T03:11:00,prt,18.55
2024-03-20T03:12:00,prt,19.52
2024-03-20T03:13:00,prt,19.49
2024-03-20T03:14:00,prt,19.47
2024-03-20T03:15:00,prt,21.32
2024-03-20T03:16:00,prt,21.43
2024-03-20T03:17:00,prt,21.36
2024-03-20T03:18:00,prt,21.88
2024-03-20T03:19:00,prt,21.65
2024-03-20T03:20:00,prt,21.16
2024-03-20T03:21:00,prt,19.56
2024-03-20T03:22:00,prt,17.68
2024-03-20T03:23:00,prt,17.94
2024-03-20T03:24:00,prt,17.99
2024-03-20T03:25:00,prt,18.67
2024-03-20T03:26:00,prt,18.16
2024-03-20T03:27:00,prt,17.65
2024-03-20T03:28:00,prt,21.46
2024-03-20T03:29:00,prt,20.58
2024-03-20T03:30:00,prt,20.95
2024-03-20T03:31:00,prt,19.66
2024-03-20T03:32:00,prt,18.12
2024-03-20T03:33:00,prt,18.79
2024-03-20T03:34:00,prt,18.46
2024-03-20T03:35:00,prt,20.44
2024-03-20T03:36:00,prt,19.98
2024-03-20T03:37:00,prt,19.28
2024-03-20T03:38:00,prt,19.49
2024-03-20T03:39:00,prt,19.03
2024-03-20T03:40:00,prt,19.13
2024-03-20T03:41:00,prt,19.51
2024-03-20T03:42:00,prt,18.01
2024-03-20T03:43:00,prt,16.91
2024-03-20T03:44:00,prt,18.97
2024-03-20T03:45:00,prt,18.00
2024-03-20T03:46:00,prt,19.57
2024-03-20T03:47:00,prt,20.57
2024-03-20T03:48:00,prt,19.41
2024-03-20T03:49:00,prt,19.05
2024-03-20T03:50:00,prt,19.06
2024-03-20T03:51:00,prt,17.04
2024-03-20T03:52:00,prt,20.12
2024-03-20T03:53:00,prt,20.10
2024-03-20T03:54:00,prt,22.00
2024-03-20T03:55:00,prt,24.85
2024-03-20T03:56:00,prt,24.57
2024-03-20T03:57:00,prt,23.86
2024-03-20T03:58:00,prt,22.15
2024-03-20T03:59:00,prt,18.26
2024-03-20T04:00:00,prt,20.51
2024-03-20T04:01:00,prt,21.29
2024-03-20T04:02:00,prt,21.34
2024-03-20T04:03:00,prt,20.14
2024-03-20T04:04:00,prt,18.10
2024-03-20T04:05:00,prt,18.10
2024-03-20T04:06:00,prt,18.27
2024-03-20T04:07:00,prt,16.47
2024-03-20T04:08:00,prt,17.14
2024-03-20T04:09:00,prt,17.54
2024-03-20T04:10:00,prt,18.98
2024-03-20T04:11:00,prt,15.88
2024-03-20T04:12:00,prt,16.11
2024-03-20T04:13:00,prt,16.16
2024-03-20T04:14:00,prt,17.18
2024-03-20T04:15:00,prt,20.51
2024-03-20T04:16:00,prt,20.19
2024-03-20T04:17:00,prt,20.98
2024-03-20T04:18:00,prt,19.89
2024-03-20T04:19:00,prt,19.66
2024-03-20T04:20:00,prt,21.72
2024-03-20T04:21:00,prt,23.21
2024-03-20T04:22:00,prt,21.28
2024-03-20T04:23:00,prt,20.21
2024-03-20T04:24:00,prt,20.20
2024-03-20T04:25:00,prt,19.32
2024-03-20T04:26:00,prt,18.10
2024-03-20T04:27:00,prt,21.73
2024-03-20T04:28:00,prt,21.27
2024-03-20T04:29:00,prt,21.30
2024-03-20T04:30:00,prt,20.14
2024-03-20T04:31:00,prt,19.96
2024-03-20T04:32:00,prt,20.83
2024-03-20T04:33:00,prt,22.56
2024-03-20T04:34:00,prt,22.24
2024-03-20T04:35:00,prt,22.62
2024-03-20T04:36:00,prt,22.60
2024-03-20T04:37:00,prt,19.65
2024-03-20T04:38:00,prt,18.81
2024-03-20T04:39:00,prt,16.96
2024-03-20T04:40:00,prt,18.36
2024-03-20T04:41:00,prt,17.70
2024-03-20T04:42:00,prt,16.76
2024-03-20T04:43:00,prt,16.03
2024-03-20T04:44:00,prt,15.94
2024-03-20T04:45:00,prt,17.33
2024-03-20T04:46:00,prt,16.92
2024-03-20T04:47:00,prt,17.73
2024-03-20T04:48:00,prt,21.98
2024-03-20T04:49:00,prt,22.66
2024-03-20T04:50:00,prt,24.09
2024-03-20T04:51:00,prt,20.92
2024-03-20T04:52:00,prt,18.98
2024-03-20T04:53:00,prt,19.27
2024-03-20T04:54:00,prt,21.70
2024-03-20T04:55:00,prt,21.99
2024-03-20T04:56:00,prt,21.19
2024-03-20T04:57:00,prt,20.68
2024-03-20T04:58:00,prt,19.53
2024-03-20T04:59:00,prt,20.29
2024-03-20T05:00:00,prt,20.03
2024-03-20T05:01:00,prt,17.19
2024-03-20T05:02:00,prt,17.35
2024-03-20T05:03:00,prt,17.50
2024-03-20T05:04:00,prt,17.88
2024-03-20T05:05:00,prt,18.26
2024-03-20T05:06:00,prt,18.08
2024-03-20T05:07:00,prt,17.80
2024-03-20T05:08:00,prt,21.48
2024-03-20T05:09:00,prt,20.89
2024-03-20T05:10:00,prt,20.58
2024-03-20T05:11:00,prt,22.21
2024-03-20T05:12:00,prt,21.28
2024-03-20T05:13:00,prt,20.74
2024-03-20T05:14:00,prt,24.46
2024-03-20T05:15:00,prt,21.15
2024-03-20T05:16:00,prt,21.45
2024-03-20T05:17:00,prt,20.01
2024-03-20T05:18:00,prt,18.03
2024-03-20T05:19:00,prt,18.84
2024-03-20T05:20:00,prt,18.02
2024-03-20T05:21:00,prt,17.90
2024-03-20T05:22:00,prt,19.92
2024-03-20T05:23:00,prt,18.39
2024-03-20T05:24:00,prt,18.32
2024-03-20T05:25:00,prt,18.89
2024-03-20T05:26:00,prt,19.67
2024-03-20T05:27:00,prt,19.28
2024-03-20T05:28:00,prt,20.13
2024-03-20T05:29:00,prt,18.05
2024-03-20T05:30:00,prt,17.44
2024-03-20T05:31:00,prt,18.11
2024-03-20T05:32:00,prt,19.37
2024-03-20T05:33:00,prt,19.20
2024-03-20T05:34:00,prt,20.51
2024-03-20T05:35:00,prt,20.29
2024-03-20T05:36:00,prt,19.65
2024-03-20T05:37:00,prt,19.49
2024-03-20T05:38:00,prt,20.98
2024-03-20T05:39:00,prt,21.53
2024-03-20T05:40:00,prt,24.46
2024-03-20T05:41:00,prt,24.71
2024-03-20T05:42:00,prt,24.66
2024-03-20T05:43:00,prt,23.98
2024-03-20T05:44:00,prt,19.99
2024-03-20T05:45:00,prt,22.89
2024-03-20T05:46:00,prt,23.38
2024-03-20T05:47:00,prt,23.56
2024-03-20T05:48:00,prt,24.27
2024-03-20T05:49:00,prt,24.43
2024-03-20T05:50:00,prt,24.44
2024-03-20T05:51:00,prt,22.54
2024-03-20T05:52:00,prt,18.87
2024-03-20T05:53:00,prt,19.48
2024-03-20T05:54:00,prt,21.14
2024-03-20T05:55:00,prt,21.83
2024-03-20T05:56:00,prt,22.02
2024-03-20T05:57:00,prt,22.63
2024-03-20T05:58:00,prt,22.63
2024-03-20T05:59:00,prt,21.70
2024-03-20T06:00:00,prt,22.07
2024-03-20T06:01:00,prt,21.29
2024-03-20T06:02:00,prt,21.59
2024-03-20T06:03:00,prt,19.36
2024-03-20T06:04:00,prt,21.08
2024-03-20T06:05:00,prt,23.53
2024-03-20T06:06:00,prt,22.67
2024-03-20T06:07:00,prt,24.15
2024-03-20T06:08:00,prt,23.43
2024-03-20T06:09:00,prt,22.85
2024-03-20T06:10:00,prt,22.84
2024-03-20T06:11:00,prt,21.35
2024-03-20T06:12:00,prt,22.12
2024-03-20T06:13:00,prt,22.22
2024-03-20T06:14:00,prt,21.48
2024-03-20T06:15:00,prt,23.32
2024-03-20T06:16:00,prt,22.74
2024-03-20T06:17:00,prt,21.95
2024-03-20T06:18:00,prt,22.64
2024-03-20T06:19:00,prt,22.61
2024-03-20T06:20:00,prt,22.92
2024-03-20T06:21:00,prt,26.64
2024-03-20T06:22:00,prt,23.05
2024-03-20T06:23:00,prt,24.96
2024-03-20T06:24:00,prt,23.51
2024-03-20T06:25:00,prt,24.94
2024-03-20T06:26:00,prt,23.50
2024-03-20T06:27:00,prt,22.69
2024-03-20T06:28:00,prt,24.56
2024-03-20T06:29:00,prt,21.73
2024-03-20T06:30:00,prt,23.59
2024-03-20T06:31:00,prt,23.55
2024-03-20T06:32:00,prt,23.55
2024-03-20T06:33:00,prt,24.33
2024-03-20T06:34:00,prt,26.64
2024-03-20T06:35:00,prt,26.86
2024-03-20T06:36:00,prt,25.84
2024-03-20T06:37:00,prt,22.91
2024-03-20T06:38:00,prt,22.66
2024-03-20T06:39:00,prt,20.66
2024-03-20T06:40:00,prt,21.63
2024-03-20T06:41:00,prt,22.16
2024-03-20T06:42:00,prt,22.13
2024-03-20T06:43:00,prt,22.73
2024-03-20T06:44:00,prt,23.34
2024-03-20T06:45:00,prt,22.03
2024-03-20T06:46:00,prt,20.94
2024-03-20T06:47:00,prt,22.19
2024-03-20T06:48:00,prt,22.19
2024-03-20T06:49:00,prt,23.77
2024-03-20T06:50:00,prt,22.55
2024-03-20T06:51:00,prt,25.21
2024-03-20T06:52:00,prt,24.08
2024-03-20T06:53:00,prt,23.42
2024-03-20T06:54:00,prt,22.86
2024-03-20T06:55:00,prt,24.57
2024-03-20T06:56:00,prt,24.86
2024-03-20T06:57:00,prt,24.79
2024-03-20T06:58:00,prt,25.32
2024-03-20T06:59:00,prt,25.83
2024-03-20T07:00:00,prt,28.13
2024-03-20T07:01:00,prt,31.66
2024-03-20T07:02:00,prt,29.06
2024-03-20T07:03:00,prt,28.60
2024-03-20T07:04:00,prt,25.02
2024-03-20T07:05:00,prt,25.12
2024-03-20T07:06:00,prt,25.68
2024-03-20T07:07:00,prt,26.97
2024-03-20T07:08:00,prt,29.78
2024-03-20T07:09:00,prt,28.70
2024-03-20T07:10:00,prt,28.94
2024-03-20T07:11:00,prt,28.31
2024-03-20T07:12:00,prt,26.45
2024-03-20T07:13:00,prt,25.70
2024-03-20T07:14:00,prt,27.38
2024-03-20T07:15:00,prt,29.06
2024-03-20T07:16:00,prt,28.82
2024-03-20T07:17:00,prt,28.32
2024-03-20T07:18:00,prt,28.03
2024-03-20T07:19:00,prt,28.12
2024-03-20T07:20:00,prt,26.93
2024-03-20T07:21:00,prt,27.62
2024-03-20T07:22:00,prt,27.66
2024-03-20T07:23:00,prt,27.44
2024-03-20T07:24:00,prt,27.96
2024-03-20T07:25:00,prt,31.35
2024-03-20T07:26:00,prt,38.09
2024-03-20T07:27:00,prt,36.97
2024-03-20T07:28:00,prt,35.22
2024-03-20T07:29:00,prt,35.34
2024-03-20T07:30:00,prt,32.40
2024-03-20T07:31:00,prt,33.39
2024-03-20T07:32:00,prt,30.77
2024-03-20T07:33:00,prt,30.50
2024-03-20T07:34:00,prt,29.66
2024-03-20T07:35:00,prt,29.60
2024-03-20T07:36:00,prt,30.49
2024-03-20T07:37:00,prt,30.89
2024-03-20T07:38:00,prt,32.07
2024-03-20T07:39:00,prt,32.01
2024-03-20T07:40:00,prt,32.69
2024-03-20T07:41:00,prt,31.27
2024-03-20T07:42:00,prt,31.18
2024-03-20T07:43:00,prt,31.61
2024-03-20T07:44:00,prt,30.07
2024-03-20T07:45:00,prt,30.64
2024-03-20T07:46:00,prt,29.60
2024-03-20T07:47:00,prt,26.34
2024-03-20T07:48:00,prt,25.75
2024-03-20T07:49:00,prt,25.32
2024-03-20T07:50:00,prt,25.78
2024-03-20T07:51:00,prt,25.69
2024-03-20T07:52:00,prt,26.85
2024-03-20T07:53:00,prt,30.89
2024-03-20T07:54:00,prt,30.48
2024-03-20T07:55:00,prt,30.88
2024-03-20T07:56:00,prt,29.29
2024-03-20T07:57:00,prt,27.06
2024-03-20T07:58:00,prt,27.20
2024-03-20T07:59:00,prt,26.60
2024-03-20T08:00:00,prt,26.07
2024-03-20T08:01:00,prt,25.50
2024-03-20T08:02:00,prt,24.62
2024-03-20T08:03:00,prt,25.11
2024-03-20T08:04:00,prt,25.73
2024-03-20T08:05:00,prt,25.65
2024-03-20T08:06:00,prt,25.71
2024-03-20T08:07:00,prt,29.05
2024-03-20T08:08:00,prt,29.83
2024-03-20T08:09:00,prt,30.58
2024-03-20T08:10:00,prt,30.07
2024-03-20T08:11:00,prt,30.09
2024-03-20T08:12:00,prt,33.78
2024-03-20T08:13:00,prt,27.20
2024-03-20T08:14:00,prt,23.23
2024-03-20T08:15:00,prt,24.01
2024-03-20T08:16:00,prt,27.88
2024-03-20T08:17:00,prt,28.19
2024-03-20T08:18:00,prt,27.78
2024-03-20T08:19:00,prt,30.36
2024-03-20T08:20:00,prt,32.09
2024-03-20T08:21:00,prt,32.09
2024-03-20T08:22:00,prt,32.00
2024-03-20T08:23:00,prt,44.13
2024-03-20T08:24:00,prt,29.22
2024-03-20T08:25:00,prt,28.10
2024-03-20T08:26:00,prt,28.00
2024-03-20T08:27:00,prt,27.96
2024-03-20T08:28:00,prt,27.79
2024-03-20T08:29:00,prt,26.26
2024-03-20T08:30:00,prt,27.00
2024-03-20T08:31:00,prt,28.36
2024-03-20T08:32:00,prt,28.70
2024-03-20T08:33:00,prt,27.97
2024-03-20T08:34:00,prt,28.00
2024-03-20T08:35:00,prt,28.26
2024-03-20T08:36:00,prt,28.03
2024-03-20T08:37:00,prt,30.05
2024-03-20T08:38:00,prt,30.78
2024-03-20T08:39:00,prt,31.73
2024-03-20T08:40:00,prt,30.20
2024-03-20T08:41:00,prt,29.56
2024-03-20T08:42:00,prt,29.14
2024-03-20T08:43:00,prt,29.31
2024-03-20T08:44:00,prt,32.96
2024-03-20T08:45:00,prt,31.04
2024-03-20T08:46:00,prt,33.80
2024-03-20T08:47:00,prt,34.60
2024-03-20T08:48:00,prt,35.00
2024-03-20T08:49:00,prt,34.72
2024-03-20T08:50:00,prt,33.72
2024-03-20T08:51:00,prt,34.37
2024-03-20T08:52:00,prt,31.13
2024-03-20T08:53:00,prt,30.29
2024-03-20T08:54:00,prt,29.94
2024-03-20T08:55:00,prt,29.43
2024-03-20T08:56:00,prt,31.80
2024-03-20T08:57:00,prt,31.60
2024-03-20T08:58:00,prt,31.88
2024-03-20T08:59:00,prt,31.37
2024-03-20T09:00:00,prt,31.32
2024-03-20T09:01:00,prt,30.59
2024-03-20T09:02:00,prt,30.15
2024-03-20T09:03:00,prt,29.70
2024-03-20T09:04:00,prt,28.12
2024-03-20T09:05:00,prt,30.22
2024-03-20T09:06:00,prt,30.38
2024-03-20T09:07:00,prt,29.36
2024-03-20T09:08:00,prt,29.00
2024-03-20T09:09:00,prt,29.24
2024-03-20T09:10:00,prt,31.02
2024-03-20T09:11:00,prt,29.75
2024-03-20T09:12:00,prt,32.91
2024-03-20T09:13:00,prt,34.00
2024-03-20T09:14:00,prt,34.34
2024-03-20T09:15:00,prt,33.59
2024-03-20T09:16:00,prt,31.10
2024-03-20T09:17:00,prt,31.39
2024-03-20T09:18:00,prt,32.50
2024-03-20T09:19:00,prt,31.28
2024-03-20T09:20:00,prt,30.87
2024-03-20T09:21:00,prt,30.85
2024-03-20T09:22:00,prt,29.09
2024-03-20T09:23:00,prt,29.40
2024-03-20T09:24:00,prt,29.00
2024-03-20T09:25:00,prt,33.91
2024-03-20T09:26:00,prt,33.76
2024-03-20T09:27:00,prt,32.30
2024-03-20T09:28:00,prt,33.85
2024-03-20T09:29:00,prt,34.43
2024-03-20T09:30:00,prt,31.35
2024-03-20T09:31:00,prt,32.15
2024-03-20T09:32:00,prt,33.85
2024-03-20T09:33:00,prt,30.19
2024-03-20T09:34:00,prt,29.83
2024-03-20T09:35:00,prt,31.39
2024-03-20T09:36:00,prt,31.42
2024-03-20T09:37:00,prt,33.63
2024-03-20T09:38:00,prt,35.51
2024-03-20T09:39:00,prt,35.23
2024-03-20T09:40:00,prt,34.89
2024-03-20T09:41:00,prt,35.15
2024-03-20T09:42:00,prt,30.20
2024-03-20T09:43:00,prt,29.95
2024-03-20T09:44:00,prt,37.13
2024-03-20T09:45:00,prt,35.35
2024-03-20T09:46:00,prt,36.68
2024-03-20T09:47:00,prt,36.76
2024-03-20T09:48:00,prt,36.51
2024-03-20T09:49:00,prt,34.63
2024-03-20T09:50:00,prt,35.85
2024-03-20T09:51:00,prt,35.37
2024-03-20T09:52:00,prt,37.27
2024-03-20T09:53:00,prt,36.55
2024-03-20T09:54:00,prt,37.16
2024-03-20T09:55:00,prt,36.69
2024-03-20T09:56:00,prt,30.33
2024-03-20T09:57:00,prt,29.19
2024-03-20T09:58:00,prt,28.07
2024-03-20T09:59:00,prt,28.36
2024-03-20T10:00:00,prt,28.76
2024-03-20T10:01:00,prt,27.89
2024-03-20T10:02:00,prt,29.29
2024-03-20T10:03:00,prt,27.70
2024-03-20T10:04:00,prt,28.12
2024-03-20T10:05:00,prt,35.76
2024-03-20T10:06:00,prt,46.98
2024-03-20T10:07:00,prt,33.60
2024-03-20T10:08:00,prt,35.34
2024-03-20T10:09:00,prt,32.92
2024-03-20T10:10:00,prt,32.27
2024-03-20T10:11:00,prt,32.66
2024-03-20T10:12:00,prt,32.44
2024-03-20T10:13:00,prt,33.92
2024-03-20T10:14:00,prt,35.75
2024-03-20T10:15:00,prt,32.89
2024-03-20T10:16:00,prt,30.72
2024-03-20T10:17:00,prt,29.53
2024-03-20T10:18:00,prt,30.47
2024-03-20T10:19:00,prt,31.23
2024-03-20T10:20:00,prt,32.84
2024-03-20T10:21:00,prt,31.67
2024-03-20T10:22:00,prt,32.05
2024-03-20T10:23:00,prt,33.44
2024-03-20T10:24:00,prt,32.64
2024-03-20T10:25:00,prt,31.58
2024-03-20T10:26:00,prt,30.59
2024-03-20T10:27:00,prt,32.34
2024-03-20T10:28:00,prt,31.73
2024-03-20T10:29:00,prt,30.23
2024-03-20T10:30:00,prt,29.64
2024-03-20T10:31:00,prt,32.11
2024-03-20T10:32:00,prt,33.15
2024-03-20T10:33:00,prt,33.58
2024-03-20T10:34:00,prt,33.02
2024-03-20T10:35:00,prt,29.99
2024-03-20T10:36:00,prt,30.53
2024-03-20T10:37:00,prt,30.27
2024-03-20T10:38:00,prt,31.17
2024-03-20T10:39:00,prt,30.11
2024-03-20T10:40:00,prt,30.16
2024-03-20T10:41:00,prt,29.45
2024-03-20T10:42:00,prt,28.90
2024-03-20T10:43:00,prt,28.67
2024-03-20T10:44:00,prt,28.26
2024-03-20T10:45:00,prt,28.47
2024-03-20T10:46:00,prt,28.69
2024-03-20T10:47:00,prt,29.04
2024-03-20T10:48:00,prt,28.64
2024-03-20T10:49:00,prt,30.15
2024-03-20T10:50:00,prt,30.52
2024-03-20T10:51:00,prt,33.40
2024-03-20T10:52:00,prt,32.80
2024-03-20T10:53:00,prt,31.33
2024-03-20T10:54:00,prt,31.46
2024-03-20T10:55:00,prt,32.47
2024-03-20T10:56:00,prt,35.83
2024-03-20T10:57:00,prt,36.64
2024-03-20T10:58:00,prt,36.21
2024-03-20T10:59:00,prt,33.98
2024-03-20T11:00:00,prt,32.99
2024-03-20T11:01:00,prt,30.85
2024-03-20T11:02:00,prt,30.86
2024-03-20T11:03:00,prt,32.41
2024-03-20T11:04:00,prt,29.38
2024-03-20T11:05:00,prt,29.77
2024-03-20T11:06:00,prt,28.11
2024-03-20T11:07:00,prt,29.96
2024-03-20T11:08:00,prt,30.01
2024-03-20T11:09:00,prt,30.26
2024-03-20T11:10:00,prt,30.30
2024-03-20T11:11:00,prt,30.25
2024-03-20T11:12:00,prt,30.33
2024-03-20T11:13:00,prt,31.12
2024-03-20T11:14:00,prt,31.14
2024-03-20T11:15:00,prt,30.48
2024-03-20T11:16:00,prt,29.56
2024-03-20T11:17:00,prt,29.23
2024-03-20T11:18:00,prt,29.15
2024-03-20T11:19:00,prt,29.10
2024-03-20T11:20:00,prt,28.07
2024-03-20T11:21:00,prt,29.70
2024-03-20T11:22:00,prt,30.18
2024-03-20T11:23:00,prt,33.39
2024-03-20T11:24:00,prt,33.41
2024-03-20T11:25:00,prt,33.17
2024-03-20T11:26:00,prt,32.58
2024-03-20T11:27:00,prt,29.61
2024-03-20T11:28:00,prt,29.52
2024-03-20T11:29:00,prt,29.58
2024-03-20T11:30:00,prt,30.76
2024-03-20T11:31:00,prt,30.05
2024-03-20T11:32:00,prt,30.36
2024-03-20T11:33:00,prt,34.24
2024-03-20T11:34:00,prt,34.41
2024-03-20T11:35:00,prt,33.57
2024-03-20T11:36:00,prt,35.14
2024-03-20T11:37:00,prt,35.14
2024-03-20T11:38:00,prt,34.96
2024-03-20T11:39:00,prt,33.93
2024-03-20T11:40:00,prt,35.24
2024-03-20T11:41:00,prt,31.58
2024-03-20T11:42:00,prt,34.82
2024-03-20T11:43:00,prt,34.25
2024-03-20T11:44:00,prt,34.27
2024-03-20T11:45:00,prt,33.38
2024-03-20T11:46:00,prt,30.55
2024-03-20T11:47:00,prt,31.09
2024-03-20T11:48:00,prt,33.18
2024-03-20T11:49:00,prt,35.31
2024-03-20T11:50:00,prt,35.89
2024-03-20T11:51:00,prt,34.66
2024-03-20T11:52:00,prt,32.23
2024-03-20T11:53:00,prt,30.02
2024-03-20T11:54:00,prt,29.76
2024-03-20T11:55:00,prt,31.11
2024-03-20T11:56:00,prt,30.21
2024-03-20T11:57:00,prt,31.25
2024-03-20T11:58:00,prt,30.42
2024-03-20T11:59:00,prt,30.83
2024-03-20T12:00:00,prt,32.04
2024-03-20T12:01:00,prt,31.82
2024-03-20T12:02:00,prt,31.56
2024-03-20T12:03:00,prt,32.40
2024-03-20T12:04:00,prt,32.92
2024-03-20T12:05:00,prt,32.74
2024-03-20T12:06:00,prt,34.43
2024-03-20T12:07:00,prt,32.02
2024-03-20T12:08:00,prt,31.25
2024-03-20T12:09:00,prt,31.41
2024-03-20T12:10:00,prt,29.69
2024-03-20T12:11:00,prt,29.73
2024-03-20T12:12:00,prt,29.38
2024-03-20T12:13:00,prt,29.06
2024-03-20T12:14:00,prt,28.90
2024-03-20T12:15:00,prt,33.76
2024-03-20T12:16:00,prt,36.60
2024-03-20T12:17:00,prt,38.70
2024-03-20T12:18:00,prt,36.06
2024-03-20T12:19:00,prt,35.19
2024-03-20T12:20:00,prt,36.07
2024-03-20T12:21:00,prt,36.03
2024-03-20T12:22:00,prt,36.33
2024-03-20T12:23:00,prt,35.12
2024-03-20T12:24:00,prt,34.01
2024-03-20T12:25:00,prt,33.75
2024-03-20T12:26:00,prt,32.66
2024-03-20T12:27:00,prt,29.93
2024-03-20T12:28:00,prt,29.81
2024-03-20T12:29:00,prt,30.56
2024-03-20T12:30:00,prt,29.96
2024-03-20T12:31:00,prt,30.13
2024-03-20T12:32:00,prt,30.92
2024-03-20T12:33:00,prt,30.79
2024-03-20T12:34:00,prt,45.93
2024-03-20T12:35:00,prt,32.60
2024-03-20T12:36:00,prt,32.00
2024-03-20T12:37:00,prt,29.43
2024-03-20T12:38:00,prt,29.54
2024-03-20T12:39:00,prt,28.72
2024-03-20T12:40:00,prt,28.44
2024-03-20T12:41:00,prt,31.92
2024-03-20T12:42:00,prt,31.93
2024-03-20T12:43:00,prt,32.15
2024-03-20T12:44:00,prt,31.32
2024-03-20T12:45:00,prt,29.68
2024-03-20T12:46:00,prt,28.62
2024-03-20T12:47:00,prt,29.71
2024-03-20T12:48:00,prt,29.90
2024-03-20T12:49:00,prt,29.27
2024-03-20T12:50:00,prt,30.18
2024-03-20T12:51:00,prt,32.53
2024-03-20T12:52:00,prt,32.96
2024-03-20T12:53:00,prt,32.92
2024-03-20T12:54:00,prt,51.56
2024-03-20T12:55:00,prt,50.30
2024-03-20T12:56:00,prt,50.18
2024-03-20T12:57:00,prt,50.87
2024-03-20T12:58:00,prt,50.07
2024-03-20T12:59:00,prt,50.54
2024-03-20T13:00:00,prt,51.90
2024-03-20T13:01:00,prt,53.49
2024-03-20T13:02:00,prt,51.71
2024-03-20T13:03:00,prt,52.61
2024-03-20T13:04:00,prt,52.17
2024-03-20T13:05:00,prt,42.98
2024-03-20T13:06:00,prt,51.66
2024-03-20T13:07:00,prt,52.07
2024-03-20T13:08:00,prt,54.31
2024-03-20T13:09:00,prt,52.58
2024-03-20T13:10:00,prt,52.49
2024-03-20T13:11:00,prt,40.98
2024-03-20T13:12:00,prt,42.74
2024-03-20T13:13:00,prt,33.95
2024-03-20T13:14:00,prt,51.28
2024-03-20T13:15:00,prt,51.05
2024-03-20T13:16:00,prt,32.02
2024-03-20T13:17:00,prt,30.64
2024-03-20T13:18:00,prt,31.08